BEIDOU-2 IGSO-4

Last updated on Fri Dec 19 2025 00:02:50 GMT+0000 (Coordinated Universal Time)

1 37763U 11038A 25351.97872181 .00000065 00000+0 00000+0 0 9997 2 37763 54.5836 167.2999 0149314 230.2426 136.1954 1.00281312 52838
UTC large
Height (km)
Speed (km/s)
/
Latitude / Longitude
Inclination (degrees)
Orbital Period (minutes)
Azimuth
Elevation
Range (km)
Doppler Factor

Next 0 passes for location: London (51.5072 / 0.1276)

Sorry there are no passes over London.